Flag for Maldives Weather past 2 weeks in Male, Maldives

Now
88 °F

Passing clouds.


Feels Like: 100 °F
Forecast: 84 / 89 °F
Wind: 12 mph from Southwest

Location: Male Airport

Current Time: Jul 30, 2014 at 4:55:05 PM

Latest Report: Jul 30, 2014 at 4:00 PM


Visibility: N/A

Pressure: 29.83 "Hg

Humidity: 70%

Dew point: 77 °F

Location of MaleLocation

Historic Weather in Male — Graph

°F

Male temperature yesterday

Maximum temperature yesterday: 88 °F (at 3:00 PM)
Minimum temperature yesterday: 82 °F (at 9:00 PM)
Average temperature yesterday: 85 °F

Past Weeks' High & Low Weather Summary

 TemperatureHumidityPressure
High90 °F (Jul 16, 1:00 PM)89% (Jul 18, 5:00 AM)29.98 "Hg (Jul 18, 5:00 AM)
Low79 °F (Jul 18, 5:00 AM)63% (Jul 30, 1:00 PM)29.77 "Hg (Jul 15, 3:00 PM)
Average85 °F75%29.86 "Hg
* Reported Jul 15 3:00 PM — Jul 30 3:00 PM, Male, Weather by CustomWeather, © 2014

Note: Actual official high and low records may vary slightly from our data, if they occured in-between our weather recording intervals... More about our weather records

Advertising

Male weather history for previous 24 hours

 ConditionsComfort  
Time TempWeatherWind HumidityBarometerVisibility
3:00 PM
Jul 30
88 °FPassing clouds.12 mph70%29.83 "HgN/A
2:00 PM90 °FPassing clouds.12 mph63%29.83 "HgN/A
1:00 PM90 °FPartly sunny.13 mph63%29.86 "HgN/A
12:00 PM88 °FPartly sunny.15 mph66%29.86 "HgN/A
11:00 AM88 °FBroken clouds.13 mph66%29.89 "HgN/A
10:00 AM88 °FBroken clouds.12 mph66%29.92 "HgN/A
9:00 AM88 °FPartly sunny.10 mph66%29.92 "HgN/A
8:00 AM86 °FPartly sunny.10 mph79%29.92 "HgN/A
7:00 AM82 °FScattered clouds.12 mph79%29.89 "HgN/A
6:00 AM82 °FPassing clouds.13 mph79%29.86 "HgN/A
5:00 AM82 °FPassing clouds.15 mph79%29.86 "HgN/A
4:00 AM84 °FPassing clouds.13 mph74%29.86 "HgN/A
3:00 AM84 °FPassing clouds.14 mph74%29.86 "HgN/A
2:00 AM82 °FPassing clouds.12 mph79%29.86 "HgN/A
1:00 AM84 °FPassing clouds.14 mph74%29.86 "HgN/A
12:00 AM84 °FPassing clouds.10 mph74%29.89 "HgN/A
11:00 PM
Jul 29
84 °FPassing clouds.14 mph74%29.92 "HgN/A
10:00 PM84 °FPassing clouds.14 mph74%29.92 "HgN/A
9:00 PM82 °FPassing clouds.15 mph79%29.89 "HgN/A
8:00 PM84 °FPassing clouds.12 mph79%29.89 "HgN/A
7:00 PM84 °FPassing clouds.20 mph79%29.86 "HgN/A
6:00 PM86 °FPassing clouds.16 mph70%29.86 "HgN/A
5:00 PM86 °FPassing clouds.16 mph70%29.83 "HgN/A
4:00 PM86 °FScattered clouds.18 mph70%29.83 "HgN/A
Weather by CustomWeather, © 2014

See weather overviewHow to use our weather pages